Location: Unspecified
(48.7670°N, 0.0000°E)
Time: 13:21:51
(UTC+00:00)

STRAND 1 - Visible Passes

Search period start: 23 July 2019 00:00
Search period end: 02 August 2019 00:00
Orbit: 768 x 781 km, 98.5° (Epoch: 23 July)

Date Brightness Start Highest point End Pass type
(mag) Time Alt. Az. Time Alt. Az. Time Alt. Az.
23 Jul ? 21:04:15 10° N 21:08:19 24° WNW 21:12:21 10° WSW visible
24 Jul ? 20:29:46 10° N 20:34:37 43° WNW 20:39:24 10° SW visible
25 Jul ? 21:36:23 10° NNW 21:39:07 15° NW 21:41:51 10° W visible
26 Jul ? 21:01:26 10° N 21:05:34 25° WNW 21:09:41 10° WSW visible
27 Jul ? 20:26:58 10° N 20:31:51 45° WNW 20:36:40 10° SW visible
28 Jul ? 21:33:30 10° NNW 21:36:23 15° NW 21:39:16 10° W visible
29 Jul ? 20:58:37 10° N 21:02:49 26° WNW 21:07:00 10° WSW visible
30 Jul ? 20:24:11 10° N 20:29:05 48° WNW 20:33:57 10° SW visible
31 Jul ? 21:30:38 10° NNW 21:33:39 16° NW 21:36:40 10° W visible
01 Aug ? 20:55:47 10° N 21:00:04 28° WNW 21:04:20 10° WSW visible
